Date,TemperatureHighF,TemperatureAvgF,TemperatureLowF,DewpointHighF,DewpointAvgF,DewpointLowF,HumidityHigh,HumidityAvg,HumidityLow,PressureMaxIn,PressureMinIn,WindSpeedMaxMPH,WindSpeedAvgMPH,GustSpeedMaxMPH,PrecipitationSumIn
2013-1-1,64,56,46,63,55,46,100,95,88,30.06,29.84,21,3,22,1.23
2013-1-2,46,42,39,46,40,35,100,92,82,30.21,30.05,18,5,18,0.04
2013-1-3,52,41,36,35,32,28,84,71,47,30.35,30.18,18,4,20,0.00
2013-1-4,56,44,34,36,31,26,81,63,31,30.42,30.28,13,3,16,0.00
2013-1-5,54,46,42,44,38,33,95,74,51,30.32,30.17,12,2,12,0.11
2013-1-6,52,46,38,48,44,35,98,93,79,30.25,30.14,19,4,19,0.90
2013-1-7,60,47,35,46,39,34,96,78,44,30.27,30.10,13,1,13,0.01
2013-1-8,62,56,48,62,52,40,99,87,71,30.14,29.99,15,2,15,1.73
2013-1-9,68,64,60,68,64,60,99,99,99,30.11,30.01,14,2,16,1.24
2013-1-10,69,66,62,69,65,62,99,99,96,30.09,29.90,23,3,24,1.65
2013-1-11,70,66,62,70,66,62,100,99,99,30.03,29.92,12,1,12,0.11
2013-1-12,77,71,68,72,68,64,99,91,64,29.97,29.81,22,4,22,0.01
2013-1-13,76,62,45,70,59,44,99,92,74,30.06,29.73,40,7,43,1.25
2013-1-14,45,41,36,45,41,35,99,98,97,30.12,30.01,23,6,24,0.67
2013-1-15,42,40,36,42,40,36,99,99,98,30.04,29.92,16,4,16,0.69
2013-1-16,37,36,35,36,35,33,100,96,91,30.12,29.97,19,5,19,0.11
2013-1-17,53,41,34,39,35,30,97,80,46,30.39,30.11,23,3,23,0.02
2013-1-18,59,43,34,37,33,25,95,73,31,30.48,30.33,12,2,12,0.00
2013-1-19,64,46,31,46,39,30,98,81,51,30.34,30.17,15,0,15,0.01
2013-1-20,68,49,34,48,39,33,99,74,29,30.21,30.07,11,1,11,0.00
2013-1-21,67,51,36,49,42,35,98,75,42,30.17,30.08,14,2,15,0.00
2013-1-22,65,49,40,45,40,34,93,72,43,30.30,30.16,11,1,11,0.00
2013-1-23,71,54,37,52,44,36,98,74,34,30.33,30.21,15,1,15,0.00
2013-1-24,72,59,43,59,52,42,98,80,61,30.26,30.14,14,1,14,0.00
2013-1-25,75,62,49,59,55,48,99,79,50,30.18,30.05,19,2,21,0.00
2013-1-26,75,60,51,64,56,50,99,88,57,30.18,30.09,13,0,13,0.01
2013-1-27,75,61,48,62,56,47,99,84,53,30.19,30.10,15,2,18,0.01
2013-1-28,74,65,56,64,61,55,98,88,68,30.17,30.03,12,1,12,0.00
2013-1-29,79,72,65,69,66,64,98,84,62,30.04,29.67,30,7,31,0.00
2013-1-30,74,56,38,68,45,30,96,70,39,30.13,29.60,29,7,33,0.75
2013-1-31,60,46,32,40,32,22,97,63,24,30.28,30.13,11,1,14,0.01
2013-2-1,65,48,38,42,37,32,95,71,31,30.35,30.24,16,1,16,0.00
2013-2-2,70,53,37,51,44,36,95,74,44,30.26,30.11,19,2,19,0.00
2013-2-3,69,54,41,51,39,23,98,65,18,30.23,30.05,16,2,16,0.00
2013-2-4,59,50,40,53,45,36,96,83,65,30.05,29.88,6,0,7,0.07
2013-2-5,72,60,51,62,56,50,99,89,63,29.97,29.87,7,0,9,0.01
2013-2-6,70,58,49,62,55,48,99,93,69,30.05,29.91,16,1,16,0.25
2013-2-7,70,60,52,60,57,51,99,90,65,29.92,29.78,18,2,20,0.87
2013-2-8,67,57,51,61,53,48,99,88,71,30.12,29.91,19,3,19,0.01
2013-2-9,65,56,47,58,51,43,93,82,67,30.17,29.96,17,2,17,0.00
2013-2-10,77,67,60,70,64,57,98,89,71,29.97,29.79,28,5,28,0.52
2013-2-11,63,56,53,63,56,52,99,99,98,30.11,29.89,14,3,28,1.91
2013-2-12,65,57,53,64,57,52,100,99,97,29.98,29.67,15,2,16,0.30
2013-2-13,57,50,40,52,45,38,99,83,59,30.03,29.82,17,4,17,0.06
2013-2-14,62,47,36,45,39,34,98,78,42,30.11,30.00,9,1,9,0.00
2013-2-15,67,51,36,49,40,34,98,69,34,30.14,30.03,18,3,20,0.01
2013-2-16,53,46,33,41,30,19,89,58,28,30.27,30.12,25,5,25,0.00
2013-2-17,64,46,31,40,34,27,92,65,35,30.29,30.13,15,2,15,0.00
2013-2-18,67,55,40,62,50,37,97,84,62,30.16,29.88,21,3,21,1.16
2013-2-19,67,58,48,61,44,29,99,64,27,30.19,29.89,21,6,21,0.10
2013-2-20,63,52,41,42,35,28,83,55,28,30.19,29.96,13,2,18,0.00
2013-2-21,74,63,52,71,56,38,99,78,59,29.95,29.67,29,6,29,0.20
2013-2-22,69,64,60,64,56,52,98,78,61,29.95,29.79,16,2,16,0.06
2013-2-23,67,59,52,55,53,47,93,81,64,29.91,29.81,14,3,14,0.00
2013-2-24,74,58,44,60,51,42,96,79,47,29.93,29.67,26,2,26,0.58
2013-2-25,68,64,58,66,61,38,99,92,49,29.68,29.36,26,3,30,0.71
2013-2-26,60,51,44,43,39,35,93,65,48,29.87,29.52,27,6,30,0.00
2013-2-27,70,55,40,49,42,37,98,66,31,30.00,29.87,21,3,22,0.01
2013-2-28,54,47,40,40,35,30,87,65,40,30.12,30.00,12,2,16,0.00
2013-3-1,59,47,36,40,34,28,95,66,34,30.12,30.02,22,3,22,0.00
2013-3-2,45,38,30,35,30,26,94,73,50,30.21,30.11,19,3,19,0.00
2013-3-3,57,40,25,36,29,24,94,69,31,30.25,30.06,12,1,13,0.00
2013-3-4,71,56,34,57,47,32,97,74,50,30.06,29.85,32,6,32,0.00
2013-3-5,73,64,51,62,50,30,88,65,32,30.17,29.83,25,5,25,0.00
2013-3-6,62,49,35,32,28,21,80,46,24,30.29,30.16,18,4,18,0.00
2013-3-7,66,48,31,41,34,29,93,63,28,30.31,30.16,10,1,10,0.00
2013-3-8,72,53,35,46,40,34,97,66,28,30.24,30.07,8,0,8,0.00
2013-3-9,70,60,47,58,53,44,92,79,65,30.09,29.87,19,2,19,0.00
2013-3-10,79,65,54,64,59,52,96,82,51,29.89,29.75,37,6,38,0.70
2013-3-11,58,49,43,53,42,36,97,79,45,29.99,29.85,21,4,21,1.50
2013-3-12,68,50,35,42,37,33,96,66,29,30.18,29.99,17,2,17,0.01
2013-3-13,66,52,39,40,32,20,92,52,18,30.35,30.17,24,4,24,0.00
2013-3-14,69,51,35,43,34,27,91,57,25,30.39,30.23,12,1,12,0.00
2013-3-15,76,58,40,52,44,38,96,64,28,30.25,30.03,23,2,23,0.00
2013-3-16,76,61,44,58,51,43,97,72,42,30.06,29.86,18,2,18,0.00
2013-3-17,78,66,53,65,58,51,97,79,47,29.89,29.72,19,3,21,0.02
2013-3-18,83,73,65,67,64,58,92,75,51,29.87,29.68,22,3,22,0.00
2013-3-19,77,63,50,60,48,40,84,60,34,29.98,29.86,19,3,19,0.00
2013-3-20,70,58,47,47,37,24,85,48,20,30.13,29.95,26,4,26,0.03
2013-3-21,67,55,44,47,36,27,76,52,26,30.00,29.78,16,1,17,0.00
2013-3-22,76,61,54,66,55,45,94,81,69,29.83,29.67,8,0,12,0.02
2013-3-23,70,67,63,67,66,62,97,95,86,29.74,29.50,5,0,20,0.08
2013-3-24,64,54,44,60,40,30,97,61,30,30.01,29.55,17,4,23,0.00
2013-3-25,58,46,34,32,26,18,82,48,24,30.24,29.99,20,4,22,0.00
2013-3-26,54,43,31,32,26,20,84,53,29,30.36,30.22,19,3,19,0.00
2013-3-27,64,46,29,38,30,26,92,60,25,30.39,30.20,11,0,11,0.00
2013-3-28,72,53,34,46,38,33,96,64,27,30.30,30.16,10,0,11,0.00
2013-3-29,76,59,41,52,46,39,97,67,35,30.25,30.10,16,1,16,0.00
2013-3-30,76,62,49,59,53,47,96,75,46,30.12,29.94,17,1,18,0.00
2013-3-31,74,63,54,65,59,52,98,89,68,29.97,29.86,31,1,33,0.01
2013-4-1,78,63,51,62,55,51,99,78,41,30.05,29.88,12,1,12,0.01
2013-4-2,78,62,47,60,54,46,98,78,44,30.04,29.89,11,0,11,0.00
2013-4-3,64,58,51,62,56,48,98,93,85,29.97,29.71,19,3,20,2.04
2013-4-4,54,51,48,50,48,44,99,90,80,30.00,29.87,13,2,13,0.01
2013-4-5,68,54,46,51,46,42,93,77,48,30.14,30.00,17,3,18,0.00
2013-4-6,74,58,42,54,48,41,98,74,42,30.08,29.96,15,1,15,0.00
2013-4-7,77,65,56,61,57,53,94,77,50,30.01,29.89,13,1,13,0.00
2013-4-8,82,69,56,64,61,54,98,79,50,29.93,29.84,17,1,21,0.00
2013-4-9,85,75,67,71,69,64,96,81,59,29.91,29.82,24,1,24,0.00
2013-4-10,83,77,72,71,69,68,89,78,64,29.88,29.71,21,2,21,0.00
2013-4-11,75,63,50,71,60,49,97,89,73,29.80,29.61,21,2,21,0.57
2013-4-12,75,58,42,53,46,38,98,72,30,29.94,29.79,16,1,16,0.01
2013-4-13,80,63,47,56,49,42,95,65,29,29.98,29.81,15,0,15,0.00
2013-4-14,74,63,56,73,62,54,99,96,73,29.81,29.67,18,1,18,3.77
2013-4-15,80,71,62,79,70,61,97,97,97,29.89,29.75,9,0,10,0.02
2013-4-16,85,77,73,84,76,72,97,97,97,30.00,29.87,12,0,12,0.00
2013-4-17,85,77,72,84,76,72,97,97,97,30.00,29.84,18,0,18,0.00
2013-4-18,84,75,56,83,74,56,97,97,97,29.84,29.68,26,3,27,0.18
2013-4-19,60,52,44,60,52,44,97,97,97,30.13,29.84,20,3,22,0.06
2013-4-20,71,54,38,70,54,38,97,97,97,30.21,30.05,13,1,15,0.01
2013-4-21,75,59,43,74,58,42,97,97,97,30.17,30.03,12,0,12,0.00
2013-4-22,80,64,47,79,63,47,97,97,97,30.08,29.93,10,0,11,0.00
2013-4-23,85,72,63,84,72,62,97,97,97,30.00,29.87,13,1,15,0.00
2013-4-24,70,63,55,69,62,54,97,97,97,30.14,29.91,22,3,22,0.42
2013-4-25,71,60,51,70,59,50,97,97,97,30.26,30.14,14,2,16,0.00
2013-4-26,80,66,51,79,65,51,97,97,97,30.20,30.12,12,0,12,0.00
2013-4-27,83,73,64,82,72,63,97,97,97,30.12,29.95,16,1,16,0.00
2013-4-28,75,70,63,74,69,62,97,97,97,29.99,29.86,14,0,14,0.00
2013-4-29,84,69,56,83,68,55,97,97,97,29.91,29.80,6,0,6,0.01
2013-4-30,75,70,60,74,69,60,97,97,97,29.84,29.79,7,0,7,0.00
2013-5-1,76,68,64,74,4,0,97,6,97,29.84,29.75,21,0,23,1.30
2013-5-2,77,68,63,0,0,0,0,0,100,29.89,29.80,13,0,13,0.36
2013-5-3,66,54,43,0,0,0,0,0,100,29.99,29.84,17,2,18,0.10
2013-5-4,72,56,38,0,0,0,0,0,100,29.98,29.80,19,1,19,0.01
2013-5-5,64,54,46,0,0,0,0,0,100,29.99,29.83,21,2,21,0.00
2013-5-6,75,59,43,0,0,0,0,0,100,29.99,29.87,17,2,20,0.00
2013-5-7,80,66,51,0,0,0,0,0,100,30.00,29.91,15,0,15,0.00
2013-5-8,84,69,53,0,0,0,0,0,100,30.04,29.95,12,0,12,0.00
2013-5-9,83,71,59,0,0,0,0,0,100,30.03,29.91,13,0,13,0.00
2013-5-10,72,68,63,0,0,0,0,0,100,29.98,29.74,22,1,24,2.40
2013-5-11,78,69,61,0,0,0,0,0,100,30.00,29.83,12,0,12,0.23
2013-5-12,79,67,55,0,0,0,0,0,100,30.11,29.99,17,2,17,0.00
2013-5-13,80,64,48,0,0,0,0,0,100,30.23,30.11,10,0,10,0.00
2013-5-14,84,68,53,0,0,0,0,0,100,30.21,30.07,13,0,13,0.00
2013-5-15,83,69,55,0,0,0,0,0,100,30.12,29.94,13,0,15,0.00
2013-5-16,84,72,60,0,0,0,0,0,100,29.97,29.82,15,1,16,0.00
2013-5-17,87,76,67,0,0,0,0,0,100,29.94,29.86,11,1,14,0.00
2013-5-18,88,79,70,0,0,0,0,0,100,29.99,29.90,15,1,15,0.00
2013-5-19,88,78,69,0,0,0,0,0,100,29.93,29.85,18,2,19,0.00
2013-5-20,91,81,75,0,0,0,0,0,100,29.93,29.80,18,1,18,0.00
2013-5-21,90,81,74,0,0,0,0,0,100,29.88,29.72,17,2,18,0.00
2013-5-22,81,72,67,0,0,0,0,0,100,29.93,29.78,21,0,23,4.13
2013-5-23,89,75,66,0,0,0,0,0,100,29.99,29.89,14,0,15,0.01
2013-5-24,89,76,64,0,0,0,0,0,100,30.08,29.97,13,0,13,0.00
2013-5-25,86,75,66,0,0,0,0,0,100,30.16,30.05,10,0,10,0.00
2013-5-26,85,74,66,0,0,0,0,0,100,30.12,30.02,7,0,7,0.00
2013-5-27,88,75,64,0,0,0,0,0,100,30.06,29.92,14,0,14,0.82
2013-5-28,85,76,67,0,0,0,0,0,100,29.99,29.90,12,0,12,0.02
2013-5-29,85,76,67,0,0,0,0,0,100,29.93,29.85,15,0,21,0.01
2013-5-30,87,78,72,0,0,0,0,0,100,29.92,29.84,22,0,25,0.59
2013-5-31,87,79,74,0,0,0,0,0,100,29.93,29.85,16,0,16,0.04
2013-6-1,90,81,73,0,0,0,0,0,100,29.90,29.81,14,1,14,0.01
2013-6-2,85,76,68,0,0,0,0,0,100,29.97,29.80,12,1,13,0.40
2013-6-3,88,79,71,0,0,0,0,0,100,29.87,29.77,11,1,13,0.00
2013-6-4,93,81,71,0,0,0,0,0,100,29.87,29.77,7,0,7,0.00
2013-6-5,91,81,72,0,0,0,0,0,100,29.85,29.71,7,0,7,0.00
2013-6-6,86,78,71,0,0,0,0,0,100,29.80,29.67,20,1,20,0.07
2013-6-7,86,76,70,0,0,0,0,0,100,29.83,29.73,12,0,14,0.04
2013-6-8,89,76,68,0,0,0,0,0,100,29.90,29.81,26,0,26,0.02
2013-6-9,90,76,69,0,0,0,0,0,100,29.90,29.80,25,0,25,0.92
2013-6-10,90,79,70,0,0,0,0,0,100,29.95,29.88,6,0,11,0.00
2013-6-11,92,82,72,0,0,0,0,0,100,30.02,29.93,5,0,6,0.00
2013-6-12,93,82,73,0,0,0,0,0,100,30.02,29.93,10,0,10,0.00
2013-6-13,92,81,72,0,0,0,0,0,100,29.99,29.84,13,0,13,0.00
2013-6-14,93,83,75,0,0,0,0,0,100,29.88,29.80,14,1,15,0.00
2013-6-15,93,80,69,0,0,0,0,0,100,29.94,29.85,10,0,10,0.00
2013-6-16,92,82,74,0,0,0,0,0,100,29.98,29.88,14,0,14,0.00
2013-6-17,93,82,72,75,35,0,79,31,49,29.96,29.84,15,1,16,0.16
2013-6-18,92,81,71,77,73,68,96,79,49,30.01,29.87,22,1,22,0.75
2013-6-19,85,75,70,77,73,69,98,92,73,30.06,29.94,8,0,8,0.52
2013-6-20,90,79,70,79,73,70,99,85,56,30.10,30.01,16,0,16,0.11
2013-6-21,93,81,70,79,74,69,98,81,51,30.12,30.03,8,0,8,0.01
2013-6-22,92,81,71,78,74,70,98,82,54,30.09,29.99,12,0,12,0.00
2013-6-23,93,80,71,78,73,70,97,83,49,30.07,29.98,18,0,18,0.03
2013-6-24,90,80,72,79,75,71,98,83,61,30.12,30.03,17,0,20,0.00
2013-6-25,92,82,72,79,74,69,98,81,48,30.09,29.98,10,0,11,0.00
2013-6-26,94,82,70,78,74,69,98,79,48,30.05,29.94,12,0,12,0.00
2013-6-27,94,82,72,79,75,71,98,81,55,30.02,29.91,14,0,14,0.00
2013-6-28,93,84,76,80,76,74,98,80,56,29.95,29.76,14,1,16,0.00
2013-6-29,88,80,73,80,76,72,97,89,74,29.81,29.70,22,1,22,0.29
2013-6-30,90,80,71,75,69,62,99,73,39,29.81,29.72,9,0,13,0.00
2013-7-1,87,76,65,71,68,64,97,76,50,29.93,29.81,14,0,14,0.00
2013-7-2,89,77,65,72,68,64,97,76,45,30.00,29.91,10,0,10,0.00
2013-7-3,90,75,66,75,68,64,95,82,47,30.03,29.94,14,0,15,0.00
2013-7-4,90,78,68,76,71,67,98,81,53,29.97,29.91,11,1,12,0.00
2013-7-5,88,78,71,79,73,68,96,86,69,30.00,29.93,16,0,19,0.00
2013-7-6,89,78,70,77,73,69,98,86,62,30.00,29.93,8,0,11,0.00
2013-7-7,90,79,74,79,75,73,97,89,65,30.08,29.97,18,1,18,0.20
2013-7-8,91,79,72,79,74,71,99,86,55,30.15,30.05,13,0,15,0.01
2013-7-9,93,81,71,78,74,70,99,83,55,30.18,30.06,12,0,12,0.60
2013-7-10,93,83,74,79,76,72,99,81,53,30.10,29.96,10,0,11,0.00
2013-7-11,91,80,72,79,76,71,97,87,66,30.00,29.92,32,1,32,1.02